Weather Roundup
Issued by NWS Springfield, MO

Home | Current Version | Previous Version | Text Only | Print | Product List | Glossary On
Versions: 1 2 3 4 5 6 7 8 9 10 11 12 13 14 15 16 17 18 19 20 21 22 23 24 25 26 27 28 29 30 31 32 33 34 35 36 37 38 39 40 41 42 43 44 45 46 47 48 49 50
000
NZUS99 KSGF 180007
HRRSGF

HOURLY WEATHER
NATIONAL WEATHER SERVICE SPRINGFIELD MO
700 PM CDT TUE OCT 17 2017

......SGF CWA......

CITY           SKY/WX    TMP DP  RH WIND       PRES   REMARKS
SPRINGFIELD    CLEAR     62  41  46 S6        30.16S
6HR MIN TEMP:  62; 6HR MAX TEMP:  71;

JOPLIN         CLEAR     60  46  59 S7        30.14F
6HR MIN TEMP:  60; 6HR MAX TEMP:  71;

WEST PLAINS    CLEAR     58  38  47 SE3       30.21S
6HR MIN TEMP:  58; 6HR MAX TEMP:  69;

ROLLA          CLEAR     56  42  59 S8        30.18S
6HR MIN TEMP:  56; 6HR MAX TEMP:  69;

OSAGE BEACH    CLEAR     59  45  59 S5        30.17S
BRANSON        CLEAR     59  37  44 SE9       30.19S

......SURROUNDING SGF CWA......

CITY           SKY/WX    TMP DP  RH WIND       PRES   REMARKS
CHANUTE        LGT RAIN  61  48  62 S9        30.11F
PARSONS        CLEAR     63  46  54 S3        30.13S
COFFEYVILLE    CLEAR     62  47  57 S7        30.12S
EMPORIA        CLEAR     64  44  48 S10       30.06S
GROVE OK       CLEAR     63  46  55 CALM      30.16S
ROGERS AR      CLEAR     63  44  50 S5        30.18S
SILOAM SPRINGS CLEAR     60  43  53 S6        30.17
HARRISON AR    CLEAR     61  38  42 S3        30.19S
NEAR YELLVILLE CLEAR     64  38  38 CALM      30.19S

......KANSAS AND MISSOURI......

CITY           SKY/WX    TMP DP  RH WIND       PRES   REMARKS
KANSAS CTY INT PTCLDY    59  48  67 S9        30.07S
DOWNTOWN KC    CLEAR     68  48  48 S12       30.07S
COLUMBIA       CLEAR     59  45  59 S8        30.15S
SEDALIA        CLEAR     59  48  67 S7        30.14S
ST JOSEPH      CLEAR     65  48  54 S9        30.05S
ST LOUIS       PTCLDY    64  40  41 S8        30.19R
SPIRIT OF STL  CLEAR     57  44  62 S3        30.17S
KIRKSVILLE     CLEAR     55  46  71 S9        30.11S
WICHITA        PTCLDY    65  47  52 S12       30.06R
TOPEKA         CLEAR     68  47  46 S9        30.05R
OLATHE         CLEAR     60  47  61 S8        30.09S

......TENNESSEE......

CITY           SKY/WX    TMP DP  RH WIND       PRES   REMARKS
MEMPHIS        PTCLDY    66  44  45 E3        30.22R
NASHVILLE      MOCLDY    61  41  47 NE5       30.27R

......ARKANSAS.......

CITY           SKY/WX    TMP DP  RH WIND       PRES   REMARKS
FAYETTEVILLE   CLEAR     57  44  62 S3        30.17F
FT SMITH       CLEAR     64  46  52 E6        30.16S
LITTLE ROCK    CLEAR     61  44  53 CALM      30.20S

......OKLAHOMA.......

CITY           SKY/WX    TMP DP  RH WIND       PRES   REMARKS
TULSA          CLEAR     68  45  43 S9        30.11F
PONCA CITY     CLEAR     66  45  46 S8        30.08F
MCALESTER      PTCLDY    64  47  53 S5        30.15F
OKLAHOMA CITY  PTCLDY    62  45  53 S8        30.10F

......IOWA............

CITY           SKY/WX    TMP DP  RH WIND       PRES   REMARKS
DES MOINES     CLEAR     64  45  49 S7        30.03S
QUAD CITIES    CLEAR     58  44  60 S3        30.10R

......ILLINOIS........

CITY           SKY/WX    TMP DP  RH WIND       PRES   REMARKS
QUINCY         CLEAR     62  41  46 S8        30.13S
CHICAGO        PTCLDY    64  41  42 SW10      30.11S




USA.gov is the U.S. government's official web portal to all federal, state and local government web resources and services.